Regional Weather Roundup
Issued by NWS State College, PA

Home | Current Version | Previous Version | Text Only | Print | Product List | Glossary On
Versions: 1 2 3 4 5 6 7 8 9 10 11 12 13 14 15 16 17 18 19 20 21 22 23 24 25 26 27 28 29 30 31 32 33 34 35 36 37 38 39 40 41 42 43 44 45 46 47 48 49 50
000
ASUS41 KCTP 300810
RWRCTP

REGIONAL WEATHER ROUNDUP
NATIONAL WEATHER SERVICE STATE COLLEGE PA
400 AM EDT SAT APR 30 2016

Note: "fair" indicates few or no clouds below 12,000 feet with no
significant weather and/or obstructions to visibility.

* = STATION THAT DOES NOT REPORT PRECIPITATION /E.G. RAIN...SNOW...ETC/
    THUNDER OR FOG.

PAZ002>004-007>009-013>016-020>023-029>032-300900-
WESTERN PENNSYLVANIA

CITY           SKY/WX    TMP DP  RH WIND       PRES   REMARKS
ERIE           CLEAR     36  33  89 CALM      30.15F
MEADVILLE      CLOUDY    37  37 100 E3        30.12R
FRANKLIN*      CLOUDY    41  39  93 NE6       30.14R
NEW CASTLE     CLOUDY    42  40  92 NE3       30.15R
BEAVER COUNTY  NOT AVBL
BUTLER*        CLOUDY    45  39  81 W3        30.16R
PITTSBURGH INT CLOUDY    45  40  82 N5        30.12S
PITTSBURGH     CLOUDY    47  42  83 NW5       30.11R
INDIANA*       CLOUDY    48  46  93 CALM      30.14S
LATROBE        CLOUDY    48  48 100 N3        30.12S FOG
WASHINGTON CO* CLOUDY    46  43  87 CALM      30.12S
$$

PAZ004>006-010>012-017>019-024>028-033>037-041-042-045-046-049>053-300900-
CENTRAL PENNSYLVANIA

CITY           SKY/WX    TMP DP  RH WIND       PRES   REMARKS
BRADFORD       CLOUDY    43  40  89 NE3       30.11R
DUBOIS         CLOUDY    44  43  96 N6        30.10R FOG
CLEARFIELD     CLOUDY    44  42  93 CALM      30.12R
JOHNSTOWN      CLOUDY    46  40  79 N5        30.09R
ALTOONA        FOG       46  44  93 NE5       30.12R VSB 1/4
STATE COLLEGE  CLOUDY    44  43  98 N5        30.12R FOG
WILLIAMSPORT   CLOUDY    45  42  89 E7        30.14S
SELINSGROVE    CLOUDY    45  42  89 E5        30.15R
FT INDIANTOWN  CLOUDY    43  43 100 NE3       30.14S
CAPITAL CITY   CLOUDY    47  44  90 E7        30.15R
HARRISBURG     CLOUDY    46  44  93 E3        30.14R FOG
YORK           CLOUDY    46  45  96 NE8       30.13S FOG
$$

PAZ038>040-043-044-047-048-054-055-060>062-067>071-300900-
EASTERN PENNSYLVANIA

CITY           SKY/WX    TMP DP  RH WIND       PRES   REMARKS
SCRANTON       CLOUDY    41  37  86 SE3       30.14S
MOUNT POCONO   CLOUDY    38  35  89 CALM      30.11S
ALLENTOWN      CLOUDY    46  38  73 CALM      30.16S
QUAKERTOWN*    CLOUDY    45  37  76 CALM      30.16S
READING        CLOUDY    45  38  76 CALM      30.14S
LANCASTER      CLOUDY    44  42  93 E5        30.15R
COATESVILLE    CLOUDY    43  43 100 CALM      30.15R
POTTSTOWN      CLOUDY    45  38  76 N3        30.16S
BLUE BELL      CLOUDY    43  37  81 CALM      30.15R
DOYLESTOWN     CLOUDY    44  38  79 CALM      30.14S
WILLOW GROVE   NOT AVBL
NORTH PHILA    CLOUDY    48  40  73 NE8       30.16S
PHILADELPHIA   CLOUDY    48  41  76 NE6       30.16S
$$



USA.gov is the U.S. government's official web portal to all federal, state and local government web resources and services.